Vertical_Velocity
-1 1 -1 -0 1 -1 -0 1 -1 0 0 1 -1 0 1 -0 -1 -1 -1 -1 -0 -1
2 -1 -1 1 -1 0 1 0 1 -0 0 -2 -0 0 -0 -0 -1 -0 0 -0 -2 -2
-2 -0 1 0 1 1 0 -0 -0 -1 -1 -0 -0 -0 -0 -1 -0 -0 -1 -2 -2 -1
0 1 1 1 1 -1 -1 -1 -1 -1 -0 -1 -1 -0 -0 -1 -0 -2 -3 -0 -2 -4
-0 1 1 -1 -1 -2 -1 0 -0 -1 -1 -0 0 0 0 -0 -1 -1 -1 -2 -1 -2
-0 -1 -1 -1 -2 0 1 -1 -3 -0 0 -0 -0 -0 -1 -1 -0 -0 -1 -0 1 -1
-1 -1 -1 -0 1 0 -2 -2 0 -0 -1 -1 -1 -0 1 1 -0 -0 0 0 -1 -0
-1 -1 2 1 -1 -1 -0 -0 -1 -0 -1 -2 0 1 0 1 1 1 -2 -1 1 1
1 2 1 -0 -1 -0 -1 -0 0 -1 -0 0 0 -3 2 1 -2 -1 -0 -2 -0 0
2 0 1 -1 -1 0 0 -1 -1 -0 -0 -1 0 -1 2 -0 -1 1 -1 -1 -1 1
-0 1 -1 0 1 -1 -2 -1 0 -0 -0 -1 0 -4 -2 -1 -1 -1 -1 0 2 0
0 0 1 -0 -2 -1 1 1 -1 -1 -1 -2 -2 1 2 -1 -2 0 1 -1 1 1
2 1 -3 -2 1 0 -2 -2 -2 -3 -3 -2 -1 -1 -3 -1 -2 2 2 3 -2 -2
-2 -2 2 0 -2 -2 -0 -3 -4 -1 -2 -3 -2 -1 -0 -0 -0 -2 -3 -2 -4 -2
Height
1507 1510 1511 1513 1513 1514 1515 1515 1515 1515 1516 1516 1516 1516 1516 1516 1516 1516 1515 1515 1514 1513
1505 1507 1509 1510 1511 1512 1512 1512 1513 1513 1514 1514 1514 1514 1514 1513 1513 1513 1513 1512 1511 1509
1503 1505 1506 1507 1508 1509 1510 1510 1511 1511 1511 1512 1512 1512 1512 1511 1511 1511 1510 1509 1507 1506
1501 1503 1504 1505 1506 1507 1508 1508 1508 1509 1510 1510 1510 1510 1510 1509 1508 1507 1507 1505 1502 1500
1500 1502 1503 1504 1504 1505 1506 1506 1506 1507 1508 1508 1508 1507 1507 1506 1505 1504 1503 1501 1498 1495
1498 1500 1501 1502 1503 1503 1503 1504 1505 1505 1505 1505 1505 1505 1504 1503 1502 1500 1498 1495 1493 1490
1496 1499 1500 1501 1501 1501 1502 1503 1503 1503 1503 1503 1503 1502 1500 1499 1497 1495 1492 1489 1487 1483
1495 1498 1499 1499 1500 1501 1501 1501 1502 1502 1501 1501 1500 1498 1497 1494 1492 1489 1486 1484 1481 1477
1495 1496 1497 1498 1499 1499 1499 1500 1500 1499 1499 1498 1497 1494 1492 1489 1486 1483 1479 1476 1473 1470
1493 1496 1496 1497 1497 1498 1498 1498 1497 1497 1496 1494 1493 1490 1487 1484 1480 1476 1473 1469 1466 1462
1493 1495 1495 1496 1496 1497 1496 1496 1495 1494 1493 1490 1488 1485 1481 1477 1474 1470 1467 1463 1460 1457
1493 1494 1494 1495 1495 1495 1495 1494 1493 1491 1488 1486 1483 1479 1475 1471 1468 1464 1461 1458 1455 1453
1492 1493 1493 1494 1494 1494 1493 1491 1488 1486 1484 1480 1477 1474 1470 1467 1463 1459 1456 1453 1449 1448
1491 1492 1493 1493 1492 1490 1488 1487 1484 1481 1479 1476 1473 1470 1466 1463 1459 1455 1451 1448 1443 1441